Overview Statistics Trail Chart Weather Telemetry Raw packets
 

This is the latest recevied weather packets stored in our database for station/object BG5HLN-13. If no packets are shown the sender has not sent any weather packets the latest 10 day(s).

<< 47 48 49 50 51 52 53 >>
Time Temp. Humidity Pressure Rain* Wind** Luminosity Snow
1787886375 31.11° C 88% 1001 hPa 0 mm - - -
1787885775 31.67° C 88% 1001.1 hPa 0 mm - - -
1787885176 31.67° C 88% 1001 hPa 0 mm - - -
1787884576 31.11° C 90% 1000.9 hPa 0 mm - - -
1787883975 31.11° C 89% 1000.9 hPa 0 mm - - -
1787883374 31.11° C 89% 1001 hPa 0 mm - - -
1787882775 31.11° C 89% 1001.1 hPa 0 mm - - -
1787882175 31.11° C 90% 1001.1 hPa 0 mm - - -
1787881575 30.56° C 90% 1001.2 hPa 0 mm - - -
1787880975 30.56° C 92% 1001.1 hPa 0 mm - - -
1787880375 30.56° C 94% 1000.9 hPa 0 mm - - -
1787879775 30° C 94% 1000.7 hPa 0 mm - - -
1787879175 30° C 94% 1000.7 hPa 0 mm - - -
1787878575 30° C 93% 1000.9 hPa 0 mm - - -
1787877975 30° C 93% 1000.7 hPa 0 mm - - -
1787877375 30° C 92% 1000.6 hPa 0 mm - - -
1787876774 31.11° C 89% 1000.4 hPa 0 mm - - -
1787876175 31.11° C 88% 1000.4 hPa 0 mm - - -
1787875574 31.11° C 88% 1000.3 hPa 0 mm - - -
1787874974 30.56° C 89% 1000.4 hPa 0 mm - - -
1787874374 30.56° C 88% 1000.2 hPa 0 mm - - -
1787873862 30.56° C 90% 1000.2 hPa 0 mm - - -
1787873263 30° C 89% 1000.3 hPa 0 mm - - -
1787872662 30° C 90% 1000.1 hPa 0 mm - - -
1787872063 30° C 90% 1000.3 hPa 0 mm - - -

* Rain latest hour (hover to see other rain measurements)
** Current wind speed in m/s (hover to see current wind gust speed)